| time (UTC) | temp F | wind direction | speed MPH | gust MPH | rain 1hr in | rain 24hr in | rain mn in | humidity % | barometer mb |
| 20260831184513 | 86 | 307 | 0.0 | 7.0 | 0.00 | 0.01 | 0.00 | 61 | 1016.6 |
| 20260831183012 | 86 | 263 | 0.0 | 6.0 | 0.00 | 0.01 | 0.00 | 63 | 1016.8 |
| 20260831181511 | 86 | 220 | 0.0 | 10.0 | 0.00 | 0.01 | 0.00 | 65 | 1017.0 |
| 20260831180007 | 85 | 251 | 0.0 | 3.0 | 0.00 | 0.01 | 0.00 | 68 | 1017.1 |
| 20260831174510 | 84 | 259 | 0.0 | 4.0 | 0.00 | 0.01 | 0.00 | 69 | 1017.3 |
| 20260831173002 | 84 | 144 | 1.0 | 6.0 | 0.00 | 0.01 | 0.00 | 69 | 1017.2 |
| 20260831171502 | 85 | 230 | 0.0 | 6.0 | 0.00 | 0.01 | 0.00 | 69 | 1017.3 |
| 20260831170003 | 84 | 206 | 0.0 | 5.0 | 0.00 | 0.01 | 0.00 | 70 | 1017.3 |
| 20260831164504 | 84 | 238 | 1.0 | 10.0 | 0.00 | 0.01 | 0.00 | 68 | 1017.4 |
| 20260831163100 | 84 | 165 | 0.0 | 6.0 | 0.00 | 0.01 | 0.00 | 69 | 1017.3 |
| 20260831161601 | 84 | 227 | 0.0 | 4.0 | 0.00 | 0.01 | 0.00 | 68 | 1017.3 |
| 20260831160103 | 82 | 213 | 0.0 | 5.0 | 0.00 | 0.01 | 0.00 | 74 | 1017.3 |
| 20260831154619 | 81 | 215 | 0.0 | 3.0 | 0.00 | 0.01 | 0.00 | 74 | 1017.4 |
| 20260831153052 | 81 | 244 | 0.0 | 4.0 | 0.00 | 0.01 | 0.00 | 69 | 1017.3 |
| 20260831151551 | 81 | 225 | 0.0 | 0.0 | 0.00 | 0.01 | 0.00 | 75 | 1017.3 |
| 20260831150048 | 80 | 230 | 0.0 | 3.0 | 0.00 | 0.01 | 0.00 | 77 | 1017.4 |
| 20260831144545 | 79 | 198 | 0.0 | 5.0 | 0.00 | 0.01 | 0.00 | 77 | 1017.6 |
| 20260831143103 | 77 | 260 | 0.0 | 2.0 | 0.00 | 0.01 | 0.00 | 82 | 1017.4 |
| 20260831141552 | 76 | 290 | 0.0 | 1.0 | 0.00 | 0.01 | 0.00 | 84 | 1017.4 |
| 20260831140040 | 75 | 283 | 0.0 | 4.0 | 0.00 | 0.01 | 0.00 | 85 | 1017.5 |
| 20260831134536 | 74 | 232 | 0.0 | 0.0 | 0.00 | 0.01 | 0.00 | 86 | 1017.5 |
| 20260831133036 | 74 | 268 | 0.0 | 0.0 | 0.00 | 0.01 | 0.00 | 85 | 1017.5 |
| 20260831131530 | 74 | 269 | 0.0 | 0.0 | 0.00 | 0.01 | 0.00 | 85 | 1017.5 |
| 20260831130028 | 74 | 268 | 0.0 | 2.0 | 0.00 | 0.01 | 0.00 | 86 | 1017.6 |
| 20260831124526 | 73 | 326 | 0.0 | 1.0 | 0.00 | 0.01 | 0.00 | 88 | 1017.3 |
| 20260831123024 | 72 | 197 | 0.0 | 0.0 | 0.00 | 0.01 | 0.00 | 89 | 1017.3 |
| 20260831121524 | 72 | 197 | 0.0 | 2.0 | 0.00 | 0.01 | 0.00 | 89 | 1017.4 |
| 20260831120028 | 72 | 279 | 0.0 | 0.0 | 0.00 | 0.01 | 0.00 | 89 | 1017.5 |
| 20260831114532 | 72 | 277 | 0.0 | 0.0 | 0.00 | 0.01 | 0.00 | 88 | 1017.3 |
| 20260831113022 | 72 | 277 | 0.0 | 0.0 | 0.00 | 0.01 | 0.00 | 88 | 1017.5 |
| 20260831111521 | 72 | 278 | 0.0 | 0.0 | 0.00 | 0.01 | 0.00 | 87 | 1017.4 |
| 20260831110021 | 72 | 268 | 0.0 | 1.0 | 0.00 | 0.01 | 0.00 | 87 | 1017.3 |
| 20260831104520 | 72 | 61 | 0.0 | 0.0 | 0.00 | 0.01 | 0.00 | 87 | 1017.0 |
| 20260831103020 | 72 | 61 | 0.0 | 0.0 | 0.00 | 0.01 | 0.00 | 87 | 1016.8 |
| 20260831101526 | 72 | 61 | 0.0 | 0.0 | 0.00 | 0.01 | 0.00 | 87 | 1016.7 |
| 20260831100019 | 72 | 342 | 0.0 | 0.0 | 0.00 | 0.01 | 0.00 | 87 | 1016.7 |
| 20260831094519 | 72 | 342 | 0.0 | 0.0 | 0.00 | 0.01 | 0.00 | 86 | 1016.7 |
| 20260831093018 | 72 | 342 | 0.0 | 0.0 | 0.00 | 0.01 | 0.00 | 86 | 1016.7 |
| 20260831091517 | 72 | 342 | 0.0 | 0.0 | 0.00 | 0.01 | 0.00 | 85 | 1016.8 |
| 20260831090017 | 72 | 342 | 0.0 | 0.0 | 0.00 | 0.01 | 0.00 | 85 | 1016.9 |
| 20260831084517 | 72 | 335 | 0.0 | 0.0 | 0.00 | 0.01 | 0.00 | 85 | 1016.8 |
| 20260831083015 | 72 | 334 | 0.0 | 0.0 | 0.00 | 0.01 | 0.00 | 85 | 1016.8 |
| 20260831081514 | 72 | 333 | 0.0 | 2.0 | 0.00 | 0.01 | 0.00 | 85 | 1016.7 |
| 20260831080013 | 72 | 333 | 0.0 | 2.0 | 0.00 | 0.01 | 0.00 | 86 | 1016.8 |
| 20260831074512 | 71 | 360 | 0.0 | 0.0 | 0.00 | 0.01 | 0.00 | 87 | 1016.8 |
| 20260831073021 | 71 | 283 | 0.0 | 0.0 | 0.00 | 0.01 | 0.00 | 88 | 1016.8 |
| 20260831071508 | 71 | 283 | 0.0 | 0.0 | 0.00 | 0.01 | 0.00 | 89 | 1017.0 |
| 20260831070016 | 71 | 283 | 0.0 | 0.0 | 0.00 | 0.01 | 0.00 | 90 | 1017.1 |
| 20260831064508 | 71 | 126 | 0.0 | 0.0 | 0.00 | 0.01 | 0.00 | 90 | 1017.0 |
| 20260831063012 | 71 | 126 | 0.0 | 0.0 | 0.00 | 0.01 | 0.00 | 90 | 1017.3 |
| 20260831061503 | 71 | 126 | 0.0 | 0.0 | 0.00 | 0.01 | 0.00 | 90 | 1017.4 |
| 20260831060001 | 71 | 126 | 0.0 | 0.0 | 0.00 | 0.01 | 0.00 | 90 | 1017.4 |
| 20260831054601 | 71 | 126 | 0.0 | 0.0 | 0.00 | 0.01 | 0.00 | 90 | 1017.6 |
| 20260831053059 | 71 | 126 | 0.0 | 0.0 | 0.00 | 0.01 | 0.00 | 90 | 1017.6 |
| 20260831051617 | 72 | 126 | 0.0 | 0.0 | 0.00 | 0.01 | 0.00 | 89 | 1017.5 |
| 20260831050058 | 72 | 126 | 0.0 | 0.0 | 0.00 | 0.01 | 0.00 | 89 | 1017.5 |
| 20260831044558 | 72 | 34 | 0.0 | 0.0 | 0.00 | 0.01 | 0.00 | 89 | 1017.6 |
| 20260831043056 | 72 | 34 | 0.0 | 0.0 | 0.00 | 0.01 | 0.00 | 90 | 1017.7 |
| 20260831041600 | 72 | 33 | 0.0 | 0.0 | 0.00 | 0.01 | 0.00 | 90 | 1017.8 |
| 20260831040052 | 71 | 33 | 0.0 | 0.0 | 0.00 | 0.01 | 0.01 | 91 | 1017.7 |
| 20260831034551 | 71 | 33 | 0.0 | 0.0 | 0.00 | 0.01 | 0.01 | 91 | 1017.7 |
| 20260831033051 | 71 | 34 | 0.0 | 0.0 | 0.00 | 0.01 | 0.01 | 91 | 1017.8 |
| 20260831031550 | 71 | 34 | 0.0 | 0.0 | 0.00 | 0.01 | 0.01 | 91 | 1017.8 |
| 20260831030107 | 71 | 34 | 0.0 | 0.0 | 0.00 | 0.01 | 0.01 | 91 | 1018.1 |
| 20260831024614 | 71 | 33 | 0.0 | 0.0 | 0.00 | 0.01 | 0.01 | 90 | 1018.4 |
| 20260831023048 | 71 | 34 | 0.0 | 0.0 | 0.00 | 0.01 | 0.01 | 90 | 1018.6 |
| 20260831021548 | 72 | 34 | 0.0 | 0.0 | 0.00 | 0.01 | 0.01 | 90 | 1018.7 |
| 20260831020047 | 72 | 34 | 0.0 | 0.0 | 0.00 | 0.01 | 0.01 | 90 | 1018.6 |
| 20260831014547 | 72 | 34 | 0.0 | 0.0 | 0.00 | 0.01 | 0.01 | 90 | 1018.9 |
| 20260831013101 | 72 | 34 | 0.0 | 0.0 | 0.00 | 0.01 | 0.01 | 89 | 1018.9 |
| 20260831011545 | 72 | 34 | 0.0 | 0.0 | 0.00 | 0.01 | 0.01 | 89 | 1018.9 |
| 20260831010045 | 72 | 33 | 0.0 | 0.0 | 0.00 | 0.01 | 0.01 | 89 | 1018.9 |
| 20260831004545 | 72 | 34 | 0.0 | 0.0 | 0.00 | 0.01 | 0.01 | 88 | 1018.7 |
| 20260831003044 | 72 | 33 | 0.0 | 0.0 | 0.00 | 0.01 | 0.01 | 88 | 1018.7 |
| 20260831001543 | 73 | 34 | 0.0 | 0.0 | 0.00 | 0.01 | 0.01 | 88 | 1018.7 |
| 20260831000043 | 73 | 34 | 0.0 | 0.0 | 0.00 | 0.01 | 0.01 | 87 | 1018.6 |
| 20260830234542 | 73 | 34 | 0.0 | 0.0 | 0.00 | 0.01 | 0.01 | 86 | 1018.4 |
| 20260830233042 | 74 | 34 | 0.0 | 0.0 | 0.00 | 0.01 | 0.01 | 86 | 1018.2 |
| 20260830231542 | 74 | 33 | 0.0 | 0.0 | 0.00 | 0.01 | 0.01 | 85 | 1017.9 |
| 20260830230041 | 74 | 33 | 0.0 | 0.0 | 0.00 | 0.01 | 0.01 | 84 | 1017.5 |
| 20260830224543 | 75 | 34 | 0.0 | 0.0 | 0.00 | 0.01 | 0.01 | 83 | 1017.5 |
| 20260830223040 | 75 | 34 | 0.0 | 0.0 | 0.00 | 0.01 | 0.01 | 80 | 1017.3 |
| 20260830221545 | 75 | 33 | 0.0 | 1.0 | 0.00 | 0.01 | 0.01 | 80 | 1016.9 |
| 20260830220039 | 75 | 309 | 0.0 | 1.0 | 0.00 | 0.01 | 0.01 | 79 | 1016.7 |
| 20260830214540 | 75 | 299 | 0.0 | 5.0 | 0.00 | 0.01 | 0.01 | 79 | 1017.0 |
| 20260830213036 | 76 | 335 | 0.0 | 0.0 | 0.00 | 0.01 | 0.01 | 81 | 1016.5 |
| 20260830211534 | 75 | 333 | 0.0 | 0.0 | 0.00 | 0.01 | 0.01 | 82 | 1017.2 |
| 20260830210032 | 75 | 335 | 0.0 | 0.0 | 0.00 | 0.01 | 0.01 | 83 | 1017.4 |
| 20260830204532 | 75 | 338 | 0.0 | 0.0 | 0.00 | 0.01 | 0.01 | 83 | 1017.4 |
| 20260830203037 | 74 | 327 | 0.0 | 0.0 | 0.01 | 0.01 | 0.01 | 83 | 1017.5 |
| 20260830201541 | 74 | 304 | 0.0 | 1.0 | 0.01 | 0.01 | 0.01 | 83 | 1017.5 |
| 20260830200028 | 74 | 300 | 0.0 | 0.0 | 0.01 | 0.01 | 0.01 | 84 | 1017.5 |
| 20260830194525 | 74 | 300 | 0.0 | 0.0 | 0.01 | 0.01 | 0.01 | 84 | 1018.0 |
| 20260830193023 | 74 | 300 | 0.0 | 1.0 | 0.00 | 0.00 | 0.00 | 82 | 1018.4 |
| 20260830191525 | 75 | 290 | 0.0 | 0.0 | 0.00 | 0.00 | 0.00 | 81 | 1018.4 |
| 20260830190030 | 75 | 290 | 0.0 | 0.0 | 0.00 | 0.00 | 0.00 | 81 | 1018.8 |